Weather History for Park Rapids, MN

Change the Weather History Date:

Wednesday, May 15, 2013

  Actual Average Record
Temperature  
Mean Temperature 60 °F -  
Max Temperature 79 °F 69 °F 87 °F (1991)
Min Temperature 42 °F 41 °F 24 °F (1959)
Degree Days  
Heating Degree Days 5    
Growing Degree Days 10 (Base 50)    
Moisture  
Dew Point 37 °F    
Average Humidity 46    
Maximum Humidity 89    
Minimum Humidity 18    
Precipitation  
Precipitation 0.00 in - - ()
Sea Level Pressure  
Sea Level Pressure 29.82 in    
Wind  
Wind Speed 7 mph (WNW)    
Max Wind Speed 22 mph    
Max Gust Speed 30 mph    
Visibility 10 miles    
Events      
Averages and records for this station are not official NWS values.
T = Trace of Precipitation, MM = Missing Value Source: NWS Daily Summary

Daily Weather History Graph

Daily Weather History Graph

Search for Another Location

Airport:

Trip Planner

Search our weather history database for the weather conditions in past years. The results will help you decide how hot, cold, wet, or windy it might be!

Date:

Astronomy

May. 15, 2013 Rise Set
Actual Time 5:44 AM CDT 8:49 PM CDT
Civil Twilight 5:08 AM CDT 9:25 PM CDT
Nautical Twilight 4:22 AM CDT 10:11 PM CDT
Astronomical Twilight 3:26 AM CDT 11:09 PM CDT
Moon 10:25 AM CDT (5/15) 12:33 AM CDT (5/15)
Length of Visible Light 16h 16m
Length of Day
15h 04m
Waxing Crescent, 27% of the Moon is Illuminated
May 15
Waxing Crescent
May 17
First Quarter
May 24
Full
May 31
Last Quarter
Jun 8
New

Hourly Weather History & Observations

Time (CDT) Temp. Windchill Dew Point Humidity Pressure Visibility Wind Dir Wind Speed Gust Speed Precip Events Conditions
12:53 AM 53.1 °F - 43.0 °F 69% 29.76 in 10.0 mi NW 9.2 mph - N/A   Clear
1:53 AM 48.0 °F - 41.0 °F 77% 29.77 in 10.0 mi WNW 6.9 mph - N/A   Clear
2:53 AM 45.0 °F 41.8 °F 39.9 °F 82% 29.78 in 10.0 mi WNW 5.8 mph - N/A   Clear
3:53 AM 42.1 °F 38.4 °F 39.0 °F 89% 29.80 in 10.0 mi WNW 5.8 mph - N/A   Clear
4:53 AM 44.1 °F - 39.0 °F 82% 29.81 in 10.0 mi Calm Calm - N/A   Clear
5:53 AM 42.1 °F 40.2 °F 37.9 °F 85% 29.83 in 10.0 mi West 3.5 mph - N/A   Clear
6:53 AM 46.9 °F - 42.1 °F 83% 29.87 in 10.0 mi Calm Calm - N/A   Clear
7:53 AM 57.0 °F - 43.0 °F 59% 29.87 in 10.0 mi WSW 6.9 mph - N/A   Clear
8:53 AM 64.0 °F - 43.0 °F 46% 29.87 in 10.0 mi WSW 8.1 mph - N/A   Clear
9:53 AM 69.1 °F - 43.0 °F 39% 29.86 in 10.0 mi WSW 10.4 mph - N/A   Clear
10:53 AM 73.0 °F - 37.0 °F 27% 29.85 in 10.0 mi WNW 12.7 mph - N/A   Clear
11:53 AM 75.0 °F - 32.0 °F 21% 29.85 in 10.0 mi NW 20.7 mph 26.5 mph N/A   Partly Cloudy
12:53 PM 78.1 °F - 30.9 °F 18% 29.83 in 10.0 mi NW 21.9 mph 29.9 mph N/A   Partly Cloudy
1:53 PM 75.0 °F - 30.9 °F 20% 29.83 in 10.0 mi WNW 12.7 mph 21.9 mph N/A   Scattered Clouds
2:53 PM 73.9 °F - 30.9 °F 21% 29.83 in 10.0 mi NW 16.1 mph - N/A   Mostly Cloudy
3:53 PM 78.1 °F - 34.0 °F 20% 29.81 in 10.0 mi West 12.7 mph - N/A   Mostly Cloudy
4:53 PM 77.0 °F - 33.1 °F 20% 29.80 in 10.0 mi Calm Calm - N/A   Partly Cloudy
5:53 PM 77.0 °F - 33.1 °F 20% 29.79 in 10.0 mi West 6.9 mph - N/A   Scattered Clouds
6:53 PM 75.0 °F - 34.0 °F 22% 29.79 in 10.0 mi NNE 4.6 mph - N/A   Overcast
7:53 PM 73.9 °F - 35.1 °F 24% 29.78 in 10.0 mi NE 3.5 mph - N/A   Overcast
8:53 PM 68.0 °F - 37.0 °F 32% 29.80 in 10.0 mi ENE 3.5 mph - N/A   Mostly Cloudy
9:53 PM 64.0 °F - 37.0 °F 37% 29.83 in 10.0 mi NNE 3.5 mph - N/A   Clear
10:53 PM 54.0 °F - 37.9 °F 55% 29.84 in 10.0 mi Calm Calm - N/A   Partly Cloudy
11:53 PM 51.1 °F - 39.0 °F 63% 29.86 in 10.0 mi Calm Calm - N/A   Clear